Find Starlink 37408

NORAD ID: 69518 Int'l Des: 2026-133 Owner: SPXS Country: US Constellation: starlink operational
LEOCIRCULAR

Current View

Loading 3D Globe...

About Starlink 37408

Starlink 37408 (NORAD 69518) is a starlink constellation satellite (v2 mini) launched Jun 11, 2026 by SPXS of US. It operates in LEO, CIRCULAR orbit with a mass of 575.00 kg.

Upcoming Passes

Passes for default location (London). Set your location on the main map for personalized predictions.

Altitude History

Loading altitude history...

Two-Line Element Set

1 69518U 26133L 26223.83264753 .00010599 00000-0 32459-3 0 9997
2 69518 53.1584 55.1846 0001213 95.9164 264.1977 15.34379812 10670
Epoch: Aug 11, 2026 • Age: 13 hours

Current Status

Altitude 463.2 km
Apogee / Perigee N/A
Velocity 7.64 km/s
Sub-Earth Point 25.55°N, 113.98°E
Launch Date Jun 11, 2026
Age 0.1 years
Type internet

Technical Details

Classification Payload
Mass 575.00 kg
Dry Mass 530.00 kg
Total Mass 575.00 kg
Length 0.30 m
Diameter 4.10 m
Span 29.00 m
Shape Box + pan
Manufacturer SPXS
Bus Type Starlink V2MO
Phase Status In Orbit
Owner/State SPXS/US

Most Searched